Date,TemperatureHighF,TemperatureAvgF,TemperatureLowF,DewpointHighF,DewpointAvgF,DewpointLowF,HumidityHigh,HumidityAvg,HumidityLow,PressureMaxIn,PressureMinIn,WindSpeedMaxMPH,WindSpeedAvgMPH,GustSpeedMaxMPH,PrecipitationSumIn
2013-1-1,26.5,19.9,11.4,20.0,12.1,5.8,87,72,49,30.26,30.12,16,8,16,0.00
2013-1-2,24.0,16.7,9.4,14.7,9.4,4.7,82,73,54,30.28,30.19,18,8,18,0.00
2013-1-3,31.2,25.6,18.7,25.4,19.5,12.0,87,78,63,30.33,30.17,22,10,22,0.00
2013-1-4,32.2,22.7,12.0,24.7,17.5,8.0,88,81,71,30.32,30.24,24,12,24,0.00
2013-1-5,34.6,28.1,16.7,31.6,24.5,13.6,94,86,72,30.31,30.02,22,9,22,0.04
2013-1-6,34.6,27.5,17.1,31.8,23.4,14.0,91,84,77,30.39,29.98,24,11,24,0.00
2013-1-7,36.3,25.9,13.6,27.4,21.3,11.1,92,83,67,30.41,30.17,27,12,27,0.00
2013-1-8,41.7,32.8,25.3,33.2,27.9,22.1,90,82,71,30.22,30.09,21,11,21,0.00
2013-1-9,50.2,40.0,29.0,34.7,28.8,20.8,85,66,36,30.53,30.08,29,11,29,0.00
2013-1-10,42.2,33.9,22.2,41.4,28.7,18.8,97,82,57,30.53,29.90,20,9,20,0.40
2013-1-11,53.6,50.0,42.3,52.8,47.9,41.5,98,93,86,29.91,29.71,26,14,26,0.15
2013-1-12,53.2,44.1,31.6,48.7,39.9,29.0,92,85,72,29.98,29.76,27,12,27,0.00
2013-1-13,31.7,23.9,13.9,29.7,21.1,9.0,94,89,80,30.30,29.88,18,5,18,0.01
2013-1-14,25.6,17.4,12.1,17.5,12.4,8.0,86,81,67,30.51,30.30,14,4,14,0.00
2013-1-15,29.2,21.1,11.5,22.6,16.6,8.0,89,82,70,30.48,30.16,8,2,8,0.00
2013-1-16,35.9,27.7,18.5,27.8,22.0,15.2,89,79,65,30.16,29.92,29,10,29,0.00
2013-1-17,34.4,27.5,20.1,29.3,19.2,13.4,90,71,52,30.45,30.08,22,9,22,0.00
2013-1-18,39.6,30.3,17.2,29.7,23.3,13.5,88,75,63,30.48,30.01,35,16,35,0.00
2013-1-19,49.2,41.1,31.2,38.6,32.3,15.4,80,71,49,30.02,29.78,39,18,39,0.00
2013-1-20,31.0,19.0,13.9,17.3,8.0,5.0,71,62,53,30.33,29.96,34,13,34,0.00
2013-1-21,15.5,10.4,4.6,7.2,-0.7,-6.3,76,61,45,30.35,30.20,26,14,26,0.00
2013-1-22,12.0,7.0,-0.7,1.0,-1.5,-6.0,83,68,54,30.47,30.34,16,8,16,0.04
2013-1-23,22.6,16.6,11.2,15.5,6.6,0.7,87,64,57,30.42,30.17,27,9,27,0.00
2013-1-24,23.6,15.5,6.5,10.6,4.2,-1.5,76,62,39,30.67,30.36,20,11,20,0.00
2013-1-25,31.5,23.7,18.0,21.5,16.4,8.5,89,74,61,30.43,30.03,27,10,27,0.04
2013-1-26,30.1,21.8,11.9,19.1,12.5,6.9,82,68,44,30.44,30.20,13,6,13,0.00
2013-1-27,37.7,29.7,22.6,36.7,24.6,17.3,96,81,67,30.43,29.97,22,10,22,0.13
2013-1-28,52.3,46.1,37.3,51.8,45.1,36.3,98,96,94,29.97,29.83,24,10,24,0.02
2013-1-29,60.4,56.8,51.1,58.1,55.4,50.1,98,95,92,29.83,29.39,32,17,32,0.86
2013-1-30,51.6,38.0,21.0,50.8,35.9,16.4,98,92,81,29.68,29.22,34,14,34,0.19
2013-1-31,21.2,14.6,4.8,17.0,8.7,-0.8,88,77,71,30.24,29.68,30,18,30,0.00
2013-2-1,18.7,9.6,1.2,14.8,2.9,-4.1,88,74,65,30.45,30.24,22,12,22,0.00
2013-2-2,26.1,18.5,9.8,22.4,14.7,3.7,91,85,75,30.26,30.04,18,10,18,0.01
2013-2-3,24.2,18.5,10.9,20.1,13.7,5.6,91,81,69,30.12,30.02,21,7,21,0.00
2013-2-4,32.7,26.4,20.9,25.8,22.2,18.0,90,84,72,30.09,29.85,15,7,15,0.00
2013-2-5,33.2,26.5,17.3,29.2,23.2,14.4,92,87,83,30.12,29.84,21,9,21,0.00
2013-2-6,38.4,31.8,21.6,31.3,26.5,18.1,88,81,69,30.28,30.13,16,7,16,0.00
2013-2-7,43.6,35.3,31.0,38.9,32.9,28.4,96,91,80,30.16,29.85,20,8,20,0.35
2013-2-8,33.1,29.0,26.3,31.6,26.2,23.4,95,89,84,30.42,29.94,22,12,22,0.00
2013-2-9,36.2,30.8,26.8,30.6,26.1,21.8,90,82,78,30.43,30.12,20,8,20,0.00
2013-2-10,49.0,40.1,31.2,46.8,37.6,27.5,95,91,75,30.12,29.55,35,17,35,0.16
2013-2-11,45.1,34.2,29.6,37.3,26.4,22.5,78,73,68,30.08,29.58,43,21,43,0.00
2013-2-12,30.9,27.8,23.3,24.8,22.7,20.4,91,81,76,30.15,29.98,21,7,21,0.00
2013-2-13,45.2,33.0,22.1,35.2,27.8,19.8,94,82,64,29.97,29.75,22,5,22,0.00
2013-2-14,40.4,36.4,33.2,33.5,30.8,26.6,88,80,70,30.01,29.71,27,10,27,0.00
2013-2-15,34.3,29.6,22.6,28.8,21.1,11.8,89,71,52,30.20,30.01,20,8,20,0.00
2013-2-16,23.2,18.0,11.3,12.9,8.7,4.2,78,67,53,30.24,30.15,20,10,20,0.00
2013-2-17,30.7,20.3,10.1,20.0,9.4,2.8,77,63,41,30.27,30.06,13,5,13,0.00
2013-2-18,53.2,39.6,26.3,44.3,33.2,19.4,93,78,66,30.06,29.46,43,21,43,0.19
2013-2-19,29.4,17.2,11.0,25.9,11.4,4.5,88,78,73,30.25,29.63,34,20,34,0.01
2013-2-20,24.5,15.7,7.3,16.8,9.4,1.6,86,76,65,30.41,30.25,20,10,20,0.00
2013-2-21,28.9,24.4,18.9,23.1,19.7,14.0,93,82,77,30.41,29.99,30,12,30,0.00
2013-2-22,33.9,28.9,24.4,32.2,26.3,22.7,97,90,78,29.98,29.85,25,12,25,0.22
2013-2-23,26.8,25.2,20.3,22.8,19.7,17.0,88,80,70,30.02,29.97,20,10,20,0.00
2013-2-24,37.6,27.0,15.8,25.7,20.6,11.9,88,77,59,30.18,30.02,10,2,10,0.00
2013-2-25,42.9,32.4,21.8,32.8,27.0,18.6,90,81,61,30.20,29.94,19,7,19,0.00
2013-2-26,33.7,32.6,32.0,31.7,29.8,26.5,96,90,76,29.94,29.48,31,16,31,0.50
2013-2-27,32.8,32.3,31.3,31.8,30.7,29.6,96,94,90,29.72,29.52,17,8,17,0.08
2013-2-28,34.9,32.6,29.1,31.3,29.4,24.3,95,88,81,30.08,29.72,20,12,20,0.00
2013-3-1,31.0,28.1,26.0,27.8,24.8,22.3,91,87,81,30.19,30.06,23,15,23,0.00
2013-3-2,29.9,25.7,18.4,23.3,20.6,13.8,91,81,70,30.21,30.16,20,12,20,0.00
2013-3-3,33.8,24.0,15.2,20.3,16.1,11.5,85,73,50,30.19,30.11,12,5,12,0.00
2013-3-4,34.5,28.7,21.1,28.5,23.2,17.3,87,80,69,30.17,30.00,18,9,18,0.00
2013-3-5,33.6,31.3,28.3,32.3,29.7,27.2,96,94,87,30.00,29.78,20,10,20,0.56
2013-3-6,31.7,29.2,27.2,29.4,26.9,25.3,96,91,87,30.33,29.97,22,13,22,0.33
2013-3-7,36.7,29.7,22.5,28.9,24.7,18.3,89,82,66,30.45,30.33,12,4,12,0.00
2013-3-8,38.4,28.5,15.7,30.3,23.6,12.7,93,82,69,30.52,30.34,13,5,13,0.00
2013-3-9,41.4,36.0,28.4,36.1,31.7,24.2,91,84,80,30.34,29.87,16,9,16,0.01
2013-3-10,53.9,45.5,37.0,49.6,42.6,34.3,96,90,80,29.89,29.61,34,8,34,0.39
2013-3-11,49.6,39.2,32.1,48.2,37.3,28.9,97,93,86,29.84,29.59,22,13,22,0.07
2013-3-12,38.9,32.0,27.6,31.5,26.0,20.8,91,79,63,30.07,29.84,26,15,26,0.01
2013-3-13,32.5,27.8,24.8,22.1,19.6,15.9,85,71,52,30.37,30.07,25,13,25,0.00
2013-3-14,36.3,29.1,23.2,30.8,24.6,17.3,94,83,62,30.38,30.11,15,6,15,0.01
2013-3-15,46.4,37.2,29.1,40.4,34.0,27.3,95,88,77,30.11,29.72,17,5,17,0.00
2013-3-16,37.4,33.8,30.5,34.2,30.8,26.0,96,89,79,30.13,29.68,22,11,22,0.00
2013-3-17,36.7,31.7,28.7,27.8,25.4,22.6,86,77,66,30.21,30.00,22,12,22,0.00
2013-3-18,36.5,30.9,23.3,33.5,27.5,13.7,96,87,66,30.00,29.66,30,13,30,0.04
2013-3-19,36.8,27.1,19.2,20.2,15.5,11.0,75,62,43,30.14,29.87,30,18,30,0.00
2013-3-20,27.4,22.1,16.0,17.9,11.5,5.5,85,63,48,30.14,30.07,25,16,25,0.00
2013-3-21,34.4,23.7,13.8,17.6,13.2,8.2,80,65,46,30.10,30.04,17,9,17,0.00
2013-3-22,41.5,29.6,18.9,22.7,18.4,13.9,82,65,40,30.10,30.03,17,5,17,0.00
2013-3-23,44.7,32.9,22.8,27.6,24.2,19.5,89,72,47,30.15,30.02,21,7,21,0.00
2013-3-24,35.6,31.4,28.5,29.9,27.0,24.4,96,84,67,30.02,29.62,30,16,30,0.25
2013-3-25,35.4,31.7,29.0,31.1,28.3,26.4,94,87,79,30.09,29.68,24,13,24,0.10
2013-3-26,41.3,35.0,29.7,29.5,26.7,24.4,87,72,54,30.28,30.09,17,8,17,0.00
2013-3-27,42.8,36.7,29.8,29.0,24.4,18.8,82,62,41,30.35,30.25,16,6,16,0.00
2013-3-28,50.7,38.9,23.8,33.4,26.0,19.5,89,62,37,30.38,30.29,15,5,15,0.00
2013-3-29,55.3,41.7,28.4,33.6,28.8,22.6,94,64,36,30.33,30.22,15,3,15,0.00
2013-3-30,58.4,43.7,26.0,41.6,32.6,21.3,85,67,45,30.26,29.88,22,7,22,0.00
2013-3-31,61.2,48.5,37.3,43.9,37.7,26.4,95,69,39,29.90,29.72,28,13,28,0.01
2013-4-1,41.4,34.7,27.7,26.8,19.7,14.6,76,56,35,30.21,29.90,23,12,23,0.00
2013-4-2,44.7,33.6,23.6,20.9,16.3,10.2,76,52,26,30.33,30.21,20,9,20,0.00
2013-4-3,47.7,33.7,20.4,23.0,16.8,12.4,76,53,27,30.48,30.33,25,6,25,0.00
2013-4-4,59.1,41.5,21.5,25.3,20.8,15.9,85,49,23,30.36,30.00,22,4,22,0.00
2013-4-5,51.2,42.0,33.7,31.3,26.0,17.8,87,55,28,30.21,30.00,25,12,25,0.00
2013-4-6,71.0,53.2,31.2,47.9,33.9,25.6,80,51,30,30.17,29.65,43,20,43,0.05
2013-4-7,64.3,51.4,38.0,48.0,40.8,33.1,85,69,41,29.94,29.67,24,10,24,0.14
2013-4-8,71.8,57.1,38.3,57.1,49.0,33.6,96,76,52,29.96,29.67,34,14,34,0.23
2013-4-9,77.3,57.6,43.4,62.9,51.3,41.2,94,81,53,29.97,29.79,28,12,28,0.24
2013-4-10,51.8,42.8,40.5,48.7,41.4,39.2,97,95,88,29.95,29.71,27,14,27,0.89
2013-4-11,53.9,46.9,40.4,53.2,45.4,36.9,98,94,85,29.86,29.58,31,10,31,0.23
2013-4-12,42.5,39.4,36.6,39.1,34.6,31.7,92,83,74,29.90,29.62,26,12,26,0.04
2013-4-13,47.1,39.9,34.0,36.0,31.9,27.5,91,74,55,30.00,29.90,24,8,24,0.00
2013-4-14,72.3,52.9,40.0,53.8,43.0,34.9,85,71,43,30.01,29.68,30,11,30,0.00
2013-4-15,64.5,56.0,46.4,57.5,50.6,44.5,96,83,60,29.98,29.71,35,14,35,0.81
2013-4-16,56.6,47.3,43.1,45.1,41.5,37.3,95,81,59,30.26,29.93,15,8,15,0.26
2013-4-17,54.8,47.5,42.0,52.0,43.8,35.8,97,87,77,30.26,29.79,33,14,33,0.55
2013-4-18,68.0,57.1,42.4,64.3,55.2,36.0,98,93,78,29.80,29.44,32,16,32,1.34
2013-4-19,42.3,37.3,33.9,36.7,30.7,28.3,88,77,72,29.97,29.54,32,20,32,0.00
2013-4-20,45.2,37.5,31.1,31.0,27.8,24.5,86,69,48,30.44,29.97,20,8,20,0.00
2013-4-21,52.4,41.4,29.4,36.5,30.5,24.2,85,66,49,30.54,30.36,24,10,24,0.00
2013-4-22,66.3,51.1,34.6,41.9,37.5,30.6,87,63,35,30.35,30.06,20,7,20,0.00
2013-4-23,60.9,50.1,38.9,52.6,45.7,36.5,95,85,66,30.06,29.86,22,9,22,0.39
2013-4-24,49.1,41.5,36.5,36.6,34.0,29.4,93,76,49,30.18,29.92,21,10,21,0.03
2013-4-25,51.3,43.5,35.3,36.7,30.5,21.3,84,62,40,30.35,30.12,23,9,23,0.00
2013-4-26,65.8,50.8,33.8,46.9,39.8,30.2,90,68,48,30.38,30.28,26,10,26,0.00
2013-4-27,68.0,54.8,38.0,51.1,44.2,36.4,97,71,36,30.32,29.99,20,7,20,0.03
2013-4-28,63.4,56.5,52.2,57.1,53.6,51.1,97,90,76,29.99,29.82,10,5,10,0.12
2013-4-29,72.0,61.0,48.9,59.0,53.7,47.1,94,78,56,29.94,29.79,23,11,23,0.00
2013-4-30,83.7,68.9,55.6,63.6,57.6,51.8,88,69,42,29.94,29.81,26,15,26,0.00
2013-5-1,83.0,70.2,54.6,61.6,56.1,51.9,95,64,36,30.11,29.94,20,7,20,0.00
2013-5-2,64.1,54.0,42.5,55.1,47.3,38.8,90,79,61,30.17,30.08,25,13,25,0.03
2013-5-3,58.9,47.7,40.4,55.3,45.5,38.1,96,92,86,30.11,29.92,22,13,22,0.11
2013-5-4,72.5,59.2,49.9,57.0,51.6,48.3,96,78,50,30.02,29.92,22,8,22,0.03
2013-5-5,75.8,59.0,46.7,52.4,47.9,43.6,93,70,33,30.02,29.92,26,9,26,0.00
2013-5-6,75.8,61.0,48.0,51.1,45.5,39.2,81,59,37,30.01,29.93,20,10,20,0.00
2013-5-7,78.5,62.0,44.6,54.7,44.9,38.3,79,56,26,30.03,29.95,20,7,20,0.00
2013-5-8,81.2,65.3,48.8,56.7,49.5,43.8,84,60,32,30.02,29.93,17,4,17,0.00
2013-5-9,72.5,61.5,51.2,61.0,55.1,45.1,96,80,57,29.96,29.80,21,6,21,0.46
2013-5-10,61.3,52.1,44.6,60.2,50.0,41.9,96,92,87,29.98,29.76,21,10,21,0.01
2013-5-11,62.4,51.1,43.4,52.2,40.9,29.3,94,71,34,30.05,29.85,30,11,30,0.00
2013-5-12,56.2,46.6,37.5,33.6,29.4,24.1,71,53,32,30.14,30.05,25,11,25,0.00
2013-5-13,66.3,53.4,35.8,41.3,31.5,24.9,79,47,22,30.20,30.04,18,5,18,0.00
2013-5-14,92.8,73.1,54.7,61.4,50.5,37.5,60,47,24,30.04,29.66,25,13,25,0.00
2013-5-15,86.3,75.0,59.6,59.6,54.8,48.5,71,51,29,29.80,29.67,21,9,21,0.00
2013-5-16,83.0,69.4,53.4,52.6,47.7,42.1,85,51,25,29.95,29.80,15,5,15,0.00
2013-5-17,82.5,67.2,57.9,65.1,58.2,47.0,95,74,50,30.00,29.92,25,4,25,0.04
2013-5-18,79.9,69.0,58.3,66.4,62.3,57.1,98,81,59,30.04,29.92,16,6,16,0.00
2013-5-19,87.2,74.4,58.6,67.9,63.5,56.9,97,72,41,29.95,29.75,21,8,21,0.00
2013-5-20,89.7,78.9,64.1,69.9,63.6,55.1,93,63,32,29.81,29.68,29,15,29,0.53
2013-5-21,80.9,71.6,62.8,68.9,64.4,60.3,94,79,62,29.76,29.64,25,13,25,0.33
2013-5-22,73.8,68.2,61.8,65.8,61.3,54.9,94,79,55,29.75,29.60,26,11,26,0.16
2013-5-23,61.7,51.6,39.5,56.7,47.2,35.7,95,85,72,30.27,29.75,28,14,28,0.03
2013-5-24,60.2,48.2,37.3,44.0,37.5,32.6,89,69,41,30.43,30.27,20,8,20,0.00
2013-5-25,57.3,49.1,38.5,50.8,42.0,34.3,90,77,57,30.41,30.26,14,4,14,0.02
2013-5-26,61.2,49.7,42.0,54.0,44.5,38.3,95,83,62,30.31,30.10,16,6,16,0.40
2013-5-27,65.5,60.1,55.4,64.4,58.8,54.0,98,95,87,30.12,29.83,20,10,20,0.72
2013-5-28,77.5,69.1,62.1,70.2,65.4,61.1,98,88,75,29.88,29.73,36,14,36,0.29
2013-5-29,83.5,73.4,64.3,72.3,66.1,61.4,96,79,60,29.93,29.79,24,10,24,0.19
2013-5-30,84.3,73.8,64.4,72.9,67.3,61.3,94,81,61,29.93,29.79,35,15,35,0.35
2013-5-31,77.2,69.8,64.4,70.1,66.0,62.3,96,88,76,29.90,29.73,30,13,30,0.53
2013-6-1,75.0,67.6,61.8,67.5,63.0,58.1,94,86,70,29.77,29.62,26,13,26,0.32
2013-6-2,63.9,56.1,46.4,60.3,52.8,43.3,94,89,82,30.05,29.73,18,10,18,0.00
2013-6-3,67.4,55.6,41.8,52.3,46.7,40.2,96,74,49,30.14,30.03,12,3,12,0.01
2013-6-4,72.4,60.1,46.0,54.7,49.6,43.4,94,70,45,30.15,30.07,15,6,15,0.00
2013-6-5,77.0,65.1,52.3,58.6,53.7,48.8,91,69,44,30.07,29.88,15,6,15,0.00
2013-6-6,70.7,61.4,54.0,61.4,53.1,47.1,89,75,59,29.90,29.83,20,10,20,0.04
2013-6-7,70.8,60.7,51.5,59.5,51.1,42.6,92,72,47,29.93,29.86,18,9,18,0.00
2013-6-8,78.2,63.5,46.8,58.5,49.8,40.7,87,63,36,29.99,29.91,16,4,16,0.00
2013-6-9,81.3,70.6,57.0,63.9,57.5,51.6,89,65,43,29.99,29.79,21,9,21,0.00
2013-6-10,79.7,70.2,62.8,68.2,64.1,60.8,98,82,58,29.85,29.72,17,5,17,0.49
2013-6-11,85.3,75.1,61.9,69.4,64.5,58.1,96,72,42,29.93,29.78,14,5,14,0.00
2013-6-12,93.4,77.1,65.1,74.6,69.6,63.3,97,80,49,29.88,29.53,58,8,58,1.90
2013-6-13,75.1,66.5,56.6,64.4,59.7,52.9,97,80,57,30.03,29.61,22,12,22,0.29
2013-6-14,78.3,64.9,53.6,63.9,57.2,50.8,92,77,53,30.11,29.99,14,6,14,0.00
2013-6-15,80.7,69.6,58.3,69.3,63.8,55.8,95,82,63,30.05,29.87,25,5,25,0.06
2013-6-16,82.4,73.8,67.1,71.1,66.0,63.1,89,77,59,29.92,29.85,26,8,26,0.28
2013-6-17,87.5,77.6,65.9,68.6,61.8,52.3,94,62,32,29.93,29.83,17,4,17,0.00
2013-6-18,72.0,64.3,56.4,63.9,57.5,50.3,89,79,67,30.03,29.86,24,11,24,0.00
2013-6-19,80.2,67.0,54.5,62.7,56.0,50.8,91,70,45,30.12,30.03,15,6,15,0.00
2013-6-20,87.5,74.7,59.7,68.3,61.7,53.9,87,66,41,30.14,30.04,13,5,13,0.00
2013-6-21,87.2,73.5,64.6,70.4,65.9,60.9,92,78,53,30.12,29.87,31,8,31,0.08
2013-6-22,77.5,72.1,66.0,73.8,67.8,63.4,96,87,73,30.07,29.96,22,7,22,0.18
2013-6-23,84.7,73.5,63.2,74.5,68.1,61.4,97,84,68,30.04,29.93,28,8,28,0.24
2013-6-24,86.0,72.1,67.6,76.7,68.0,62.9,95,88,64,30.08,29.88,41,9,41,0.19
2013-6-25,87.5,76.3,66.9,76.7,70.4,63.8,97,83,63,29.95,29.78,20,9,20,0.00
2013-6-26,81.3,73.6,66.6,74.0,69.3,64.5,97,87,70,29.84,29.69,20,6,20,0.65
2013-6-27,89.0,78.0,66.2,75.8,69.0,62.6,96,76,51,29.77,29.67,20,8,20,0.00
2013-6-28,82.7,73.2,66.6,66.6,63.0,59.2,88,71,47,29.69,29.58,25,9,25,0.15
2013-6-29,72.3,66.1,60.6,66.5,62.6,57.0,96,89,76,29.72,29.56,21,8,21,0.06
2013-6-30,73.8,67.2,61.7,64.6,59.5,50.8,93,77,56,29.94,29.72,22,12,22,0.00
2013-7-1,74.0,66.9,57.8,62.3,57.3,53.7,88,72,55,30.02,29.93,25,13,25,0.00
2013-7-2,67.5,62.8,59.2,61.2,58.3,55.7,95,85,79,30.04,29.99,17,10,17,0.00
2013-7-3,72.5,64.7,56.8,66.5,61.5,54.9,98,90,75,30.07,29.99,12,5,12,0.00
2013-7-4,80.6,69.1,55.4,67.4,61.7,54.5,98,79,58,30.10,30.03,18,5,18,0.01
2013-7-5,83.6,71.4,54.3,69.6,63.9,52.8,98,79,54,30.09,30.00,14,3,14,0.00
2013-7-6,78.3,72.1,64.1,70.6,67.0,62.3,98,85,69,30.05,29.96,12,4,12,0.00
2013-7-7,86.8,76.5,67.3,73.5,69.3,64.2,94,79,61,30.02,29.93,16,7,16,0.00
2013-7-8,87.1,78.1,72.1,76.2,71.3,68.8,92,80,61,30.02,29.93,21,10,21,0.07
2013-7-9,85.9,79.7,72.4,78.1,74.5,70.6,96,84,73,29.99,29.85,22,6,22,0.13
2013-7-10,85.8,76.3,60.3,75.8,70.4,57.5,94,82,61,29.99,29.80,20,7,20,0.11
2013-7-11,79.0,68.3,55.9,65.1,59.1,52.3,96,75,45,30.08,29.98,17,6,17,0.01
2013-7-12,82.8,68.5,51.2,66.1,58.9,48.8,95,74,44,30.14,30.05,10,3,10,0.00
2013-7-13,84.8,71.3,55.5,66.8,62.4,53.8,97,76,50,30.15,30.07,16,4,16,0.01
2013-7-14,90.0,76.3,62.1,74.6,68.9,60.8,97,80,54,30.17,30.11,13,5,13,0.00
2013-7-15,91.5,80.1,69.0,77.0,72.6,67.5,97,80,56,30.24,30.16,15,4,15,0.01
2013-7-16,91.6,80.8,68.7,75.5,72.0,67.2,98,77,53,30.29,30.22,12,4,12,0.00
2013-7-17,93.5,83.4,68.2,75.7,72.1,66.2,96,70,49,30.30,30.15,12,4,12,0.00
2013-7-18,94.0,84.6,71.9,77.6,73.9,69.4,96,72,51,30.16,29.95,16,6,16,0.00
2013-7-19,95.5,86.2,76.6,76.2,73.3,69.7,86,67,45,29.95,29.75,24,12,24,0.00
2013-7-20,89.0,79.6,67.5,74.0,67.8,58.6,94,69,39,29.90,29.77,13,5,13,0.06
2013-7-21,86.2,75.5,63.4,72.8,68.4,62.2,98,80,58,29.93,29.83,12,4,12,0.00
2013-7-22,87.5,77.2,65.8,71.2,68.4,64.0,97,76,53,29.84,29.72,12,4,12,0.01
2013-7-23,82.8,71.5,57.7,70.5,63.6,53.8,89,77,62,29.95,29.66,29,10,29,0.00
2013-7-24,74.3,62.8,48.8,55.6,51.7,46.3,94,69,47,30.05,29.93,20,7,20,0.00
2013-7-25,80.7,66.2,46.9,59.2,53.6,44.9,96,67,41,30.11,30.03,10,3,10,0.00
2013-7-26,74.1,67.2,60.8,66.3,60.8,55.4,92,80,65,30.05,29.87,20,7,20,0.02
2013-7-27,69.0,62.8,56.9,64.9,54.2,47.1,92,75,54,29.93,29.86,23,10,23,0.00
2013-7-28,70.3,60.8,50.8,53.5,49.8,46.8,88,68,47,30.03,29.89,21,8,21,0.00
2013-7-29,77.5,65.6,54.1,59.7,54.8,49.6,92,70,50,30.17,30.03,16,6,16,0.00
2013-7-30,67.1,62.1,50.9,65.8,59.9,49.2,97,93,80,30.17,30.06,12,4,12,0.44
2013-7-31,75.9,69.4,64.5,68.9,66.3,62.7,98,90,77,30.06,29.94,13,4,13,0.05
2013-8-1,80.0,70.7,59.0,66.4,59.9,53.6,96,72,41,29.98,29.93,23,8,23,0.01
2013-8-2,84.0,71.3,58.6,71.7,64.7,55.8,95,80,64,29.95,29.83,24,8,24,0.35
2013-8-3,80.0,70.4,56.6,68.2,62.1,54.1,96,77,50,30.09,29.92,15,5,15,0.03
2013-8-4,78.5,65.7,53.3,64.0,57.1,51.4,97,76,48,30.17,30.09,14,4,14,0.00
2013-8-5,73.8,64.5,53.7,64.8,60.3,52.0,96,87,66,30.12,29.88,20,5,20,0.15
2013-8-6,80.9,71.1,62.5,72.7,67.6,61.3,97,89,73,29.91,29.83,13,5,13,0.02
2013-8-7,85.3,76.9,68.0,77.3,72.1,65.2,95,86,65,29.91,29.78,15,8,15,0.00
2013-8-8,81.1,70.8,63.2,67.7,63.1,55.3,96,78,60,29.98,29.91,15,7,15,0.00
2013-8-9,81.1,70.9,55.3,66.0,61.5,53.5,97,74,54,30.02,29.95,12,5,12,0.00
2013-8-10,83.5,72.5,58.7,68.9,62.6,55.1,93,73,44,30.10,30.02,14,5,14,0.00
2013-8-11,82.1,69.7,54.6,64.5,60.1,52.3,95,74,51,30.12,30.03,13,4,13,0.00
2013-8-12,83.6,74.2,62.6,70.9,65.6,59.6,95,76,54,30.05,29.84,18,7,18,0.01
2013-8-13,73.0,64.4,50.9,65.4,54.7,44.8,96,73,44,30.13,29.89,22,8,22,0.00
2013-8-14,73.3,59.9,48.4,57.4,51.8,45.9,96,76,47,30.21,30.13,12,3,12,0.00
2013-8-15,74.8,61.1,44.7,58.2,52.3,43.4,98,76,46,30.18,30.10,10,2,10,0.00
2013-8-16,80.7,67.2,55.2,59.5,55.7,51.1,93,70,41,30.18,30.11,14,3,14,0.00
2013-8-17,80.4,65.8,50.8,61.5,55.4,48.6,96,72,41,30.22,30.15,16,4,16,0.00
2013-8-18,84.1,68.3,53.1,64.6,58.2,51.3,98,74,42,30.18,30.08,16,3,16,0.01
2013-8-19,84.7,70.1,52.6,65.4,60.0,51.2,98,73,47,30.12,30.02,21,3,21,0.00
2013-8-20,86.6,73.3,59.6,67.4,64.1,58.2,98,75,50,30.12,30.02,15,4,15,0.00
2013-8-21,89.0,76.7,61.7,70.5,66.1,60.3,97,72,48,30.09,29.97,18,6,18,0.00
2013-8-22,76.7,70.2,62.7,69.4,67.4,61.3,97,91,74,30.12,29.98,19,5,19,0.80
2013-8-23,83.6,69.9,58.8,68.9,62.3,56.3,98,80,44,30.15,30.07,14,4,14,0.01
2013-8-24,83.6,69.0,54.6,65.8,60.2,52.8,97,76,49,30.25,30.15,15,4,15,0.01
2013-8-25,86.6,73.3,57.5,67.8,62.3,55.1,94,71,48,30.26,30.14,18,5,18,0.00
2013-8-26,88.2,78.3,66.6,74.5,68.7,61.5,88,73,61,30.17,30.00,17,8,17,0.00
2013-8-27,90.9,82.1,74.5,77.4,72.4,67.5,87,73,58,30.00,29.85,20,10,20,0.00
2013-8-28,87.6,78.5,68.6,76.4,69.7,65.4,95,75,62,30.00,29.82,24,10,24,0.00
2013-8-29,88.8,76.8,67.2,71.4,68.5,64.3,97,78,48,30.05,29.95,17,4,17,0.00
2013-8-30,94.0,77.2,63.4,78.6,69.4,61.9,98,79,48,29.96,29.75,37,6,37,0.11
2013-8-31,83.7,72.6,67.3,75.0,69.0,65.0,97,89,72,29.83,29.72,16,6,16,0.02
2013-9-1,83.4,73.2,65.3,72.0,68.6,64.4,98,87,63,29.79,29.72,14,4,14,0.22
2013-9-2,80.3,69.8,59.0,70.1,63.6,57.3,95,82,56,29.96,29.74,16,7,16,0.00
2013-9-3,75.0,64.6,54.1,59.1,56.2,52.1,96,76,53,30.08,29.96,12,4,12,0.00
2013-9-4,81.6,66.7,49.0,62.6,56.7,47.6,98,73,43,30.13,30.04,13,4,13,0.00
2013-9-5,80.3,66.2,56.3,65.4,58.2,49.7,96,77,52,30.21,30.10,14,5,14,0.00
2013-9-6,85.7,69.1,54.5,68.2,59.1,50.1,93,73,51,30.21,30.01,12,4,12,0.00
2013-9-7,87.6,74.1,60.5,68.0,64.0,59.1,97,73,45,30.02,29.88,17,5,17,0.00
2013-9-8,86.9,75.7,67.2,71.3,67.9,65.0,93,78,56,29.96,29.89,15,7,15,0.00
2013-9-9,95.8,80.1,64.9,76.0,70.2,63.3,97,75,47,29.94,29.81,18,8,18,0.00
2013-9-10,96.0,84.4,72.9,70.9,67.7,64.0,84,60,36,30.00,29.88,22,9,22,0.00
2013-9-11,92.9,80.9,72.6,71.3,69.1,66.2,90,69,46,30.03,29.94,20,9,20,0.07
2013-9-12,83.3,71.5,59.8,69.9,62.8,50.1,95,77,37,30.04,29.90,27,8,27,0.35
2013-9-13,68.0,58.0,45.2,57.2,49.1,41.8,94,74,46,30.14,30.04,22,9,22,0.00
2013-9-14,71.2,54.3,38.6,49.7,42.8,37.0,97,70,33,30.20,30.05,13,2,13,0.00
2013-9-15,69.6,58.5,46.2,58.6,52.1,43.6,96,81,53,30.12,29.97,18,5,18,0.08
2013-9-16,67.4,58.2,46.1,57.1,51.2,43.6,97,79,52,30.33,30.12,19,8,19,0.00
2013-9-17,73.3,58.3,43.0,55.6,50.3,41.6,97,77,50,30.33,30.11,14,5,14,0.01
2013-9-18,84.3,67.7,55.4,67.5,61.2,51.6,94,81,56,30.11,29.92,22,6,22,0.38
2013-9-19,91.0,76.2,66.6,74.0,69.3,64.8,97,81,50,29.98,29.79,20,11,20,0.05
2013-9-20,76.6,68.9,57.6,70.9,62.6,52.1,95,81,64,29.85,29.76,32,9,32,0.05
2013-9-21,68.6,58.2,46.6,54.1,49.6,43.1,94,75,48,29.94,29.80,20,8,20,0.00
2013-9-22,69.9,56.0,45.5,51.9,46.9,42.4,93,74,46,30.05,29.94,13,5,13,0.00
2013-9-23,72.5,56.0,40.5,50.7,45.8,38.7,96,72,40,30.11,30.01,13,4,13,0.00
2013-9-24,74.5,58.6,44.9,53.5,48.7,42.9,94,73,41,30.06,29.90,16,6,16,0.00
2013-9-25,77.9,60.2,47.6,54.4,50.2,45.7,96,73,39,29.95,29.88,15,5,15,0.00
2013-9-26,79.1,61.0,45.9,58.1,50.6,44.8,97,74,33,30.07,29.94,13,3,13,0.00
2013-9-27,82.7,63.1,46.6,58.1,50.0,44.1,96,67,33,30.16,30.05,17,4,17,0.01
2013-9-28,84.3,67.8,46.9,61.4,53.7,44.3,95,64,39,30.09,29.91,27,9,27,0.00
2013-9-29,72.1,60.3,43.5,63.2,52.6,41.6,94,78,49,30.03,29.92,24,8,24,0.19
2013-9-30,76.0,58.4,39.3,56.2,48.8,37.9,98,74,41,30.01,29.89,14,4,14,0.01
2013-10-1,79.3,68.7,59.9,66.0,62.7,56.0,97,82,61,29.98,29.90,22,10,22,0.00
2013-10-2,81.3,71.0,60.6,68.2,64.7,58.6,97,82,60,30.06,29.96,20,5,20,0.00
2013-10-3,81.4,68.0,59.5,71.1,65.4,58.1,98,92,67,29.97,29.83,33,6,33,1.03
2013-10-4,85.8,72.9,63.6,72.8,66.6,61.8,96,82,54,29.97,29.89,14,6,14,0.00
2013-10-5,80.7,71.5,66.2,72.3,68.4,63.8,97,90,73,29.94,29.75,27,8,27,2.31
2013-10-6,67.1,55.3,47.6,66.2,48.0,40.3,97,78,53,29.79,29.69,22,9,22,0.16
2013-10-7,67.3,53.4,43.7,49.8,45.7,41.3,95,77,48,30.10,29.78,17,8,17,0.00
2013-10-8,76.3,58.6,43.9,54.4,47.7,42.1,95,71,37,30.21,30.09,10,3,10,0.00
2013-10-9,73.4,55.8,39.6,51.1,44.8,37.9,97,71,34,30.25,30.13,14,3,14,0.00
2013-10-10,76.1,57.7,40.4,57.8,49.4,38.8,97,77,48,30.18,30.05,10,2,10,0.00
2013-10-11,77.5,61.0,47.8,58.3,51.5,46.1,96,74,44,30.09,29.95,25,4,25,0.00
2013-10-12,74.5,61.4,49.6,64.9,54.7,43.7,94,79,62,30.18,29.98,20,6,20,0.11
2013-10-13,65.4,52.5,39.8,46.6,40.5,33.9,93,67,33,30.40,30.18,15,5,15,0.00
2013-10-14,67.2,50.7,35.1,47.3,41.7,33.3,96,75,42,30.40,30.14,15,5,15,0.01
2013-10-15,63.2,56.1,47.1,62.0,52.8,43.1,96,89,78,30.14,29.80,20,8,20,0.12
2013-10-16,55.5,50.4,43.7,46.7,44.3,40.4,89,80,70,29.97,29.88,20,9,20,0.00
2013-10-17,55.5,47.8,36.7,46.9,43.3,34.6,95,85,58,29.95,29.85,21,6,21,0.06
2013-10-18,49.9,44.5,36.9,43.2,39.6,35.1,95,83,68,30.00,29.88,17,7,17,0.00
2013-10-19,54.2,47.4,41.4,41.6,38.3,33.6,93,72,48,29.97,29.82,23,10,23,0.03
2013-10-20,67.0,53.2,41.1,46.4,41.4,36.6,85,66,41,29.91,29.74,27,12,27,0.00
2013-10-21,54.9,45.9,32.8,46.6,36.2,25.4,88,70,48,30.00,29.83,22,9,22,0.04
2013-10-22,43.7,35.4,27.1,35.3,30.6,23.0,95,83,62,30.03,29.93,11,4,11,0.19
2013-10-23,45.8,37.9,30.5,35.6,31.0,26.6,95,77,52,30.06,29.92,17,9,17,0.00
2013-10-24,42.7,38.3,35.9,33.0,28.5,23.3,86,68,50,30.33,30.05,20,9,20,0.00
2013-10-25,50.7,39.6,27.6,32.2,28.3,23.1,85,65,44,30.45,30.13,22,9,22,0.00
2013-10-26,55.4,45.1,38.5,38.8,32.6,28.3,72,62,49,30.13,29.89,28,13,28,0.00
2013-10-27,55.4,41.4,26.3,36.1,30.4,23.8,93,67,39,30.11,30.01,17,4,17,0.00
2013-10-28,60.9,43.6,26.7,44.4,35.4,24.3,94,75,38,30.35,30.09,16,5,16,0.00
2013-10-29,58.5,45.0,32.8,46.4,40.0,30.8,95,84,52,30.37,30.16,12,5,12,0.03
2013-10-30,64.9,53.4,42.0,63.1,52.4,40.1,98,96,92,30.16,29.79,26,7,26,1.35
2013-10-31,64.9,59.3,46.6,62.7,57.5,43.5,96,94,89,29.79,29.22,28,16,28,0.61
2013-11-1,50.9,47.1,44.8,44.5,43.1,40.8,93,86,71,29.76,29.42,27,11,27,0.02
2013-11-2,47.9,43.0,38.0,43.1,39.6,35.6,95,88,78,30.15,29.76,17,8,17,0.01
2013-11-3,53.2,42.0,31.0,42.2,36.3,29.3,96,81,55,30.33,30.15,14,5,14,0.00
2013-11-4,55.9,48.6,40.0,44.4,41.0,36.3,88,75,59,30.30,30.15,23,13,23,0.00
2013-11-5,55.8,52.1,49.6,50.9,47.2,43.9,94,84,76,30.29,29.99,23,10,23,0.02
2013-11-6,56.9,48.1,34.5,54.1,45.0,29.3,95,89,78,30.18,29.83,29,15,29,0.82
2013-11-7,45.4,36.0,30.4,36.2,30.3,26.8,90,80,62,30.30,30.18,21,9,21,0.00
2013-11-8,49.4,39.7,28.8,36.9,31.9,26.2,91,75,52,30.38,30.02,26,9,26,0.00
2013-11-9,60.2,50.3,42.0,43.4,38.5,33.1,81,65,47,30.14,29.92,30,16,30,0.00
2013-11-10,48.7,41.2,33.6,36.4,31.6,28.5,82,69,53,30.36,30.14,20,8,20,0.00
2013-11-11,47.6,38.2,25.1,39.9,32.2,19.3,95,79,66,30.50,30.12,23,12,23,0.18
2013-11-12,32.2,26.3,21.9,25.0,19.6,17.0,83,76,64,30.72,30.50,20,10,20,0.00
2013-11-13,37.7,28.9,19.0,24.8,20.2,14.8,84,70,55,30.65,30.25,23,12,23,0.00
2013-11-14,50.2,39.0,29.7,29.6,25.7,21.4,72,60,43,30.25,30.01,27,15,27,0.00
2013-11-15,47.3,41.6,36.0,39.6,33.2,28.0,88,72,60,30.04,29.97,21,9,21,0.00
2013-11-16,60.2,51.9,38.5,57.6,49.1,35.7,95,90,81,29.99,29.62,34,17,34,0.08
2013-11-17,68.2,57.1,43.6,63.9,52.5,36.5,95,85,71,29.77,29.20,50,23,50,0.17
2013-11-18,44.4,39.0,29.9,37.2,31.2,25.3,87,74,56,30.28,29.77,27,13,27,0.00
2013-11-19,42.8,32.9,23.9,32.2,27.4,20.8,89,81,60,30.40,30.28,12,5,12,0.00
2013-11-20,44.1,36.2,26.4,38.0,31.3,23.6,94,83,66,30.33,30.11,23,8,23,0.18
2013-11-21,48.5,45.1,39.6,46.2,43.0,38.0,97,92,83,30.20,30.13,16,5,16,0.33
2013-11-22,45.7,37.4,28.3,44.8,34.5,24.9,97,89,77,30.50,30.17,20,9,20,0.05
2013-11-23,28.3,22.1,13.8,24.9,14.6,6.5,91,73,55,30.74,30.46,25,12,25,0.00
2013-11-24,26.5,18.4,11.0,12.2,8.3,5.2,79,65,44,30.78,30.47,14,6,14,0.00
2013-11-25,31.6,27.3,19.2,26.4,20.0,10.6,88,74,60,30.47,30.14,22,12,22,0.00
2013-11-26,36.0,29.3,17.2,28.5,22.9,8.7,85,77,64,30.17,30.03,29,10,29,0.00
2013-11-27,27.4,20.0,12.2,15.4,10.7,6.4,79,67,54,30.33,30.15,23,11,23,0.00
2013-11-28,35.8,26.8,20.4,19.9,16.3,13.1,80,65,50,30.53,30.23,22,9,22,0.00
2013-11-29,36.2,26.3,15.1,23.3,18.7,9.9,87,74,55,30.67,30.46,12,4,12,0.00
2013-11-30,50.0,36.9,25.5,32.9,27.8,21.5,86,70,50,30.45,30.09,21,9,21,0.00
2013-12-1,46.7,34.5,27.1,36.8,30.0,23.3,94,84,66,30.12,30.00,12,3,12,0.00
2013-12-2,41.5,36.4,32.7,35.4,32.1,30.0,95,85,68,30.00,29.76,15,7,15,0.03
2013-12-3,50.5,44.2,36.1,48.6,42.8,34.5,96,95,92,29.77,29.68,16,8,16,0.00
2013-12-4,56.9,49.8,40.5,55.4,48.3,36.6,98,95,80,29.77,29.53,26,10,26,0.00
2013-12-5,40.4,26.7,21.3,36.4,20.7,13.7,88,78,70,30.29,29.72,29,13,29,0.00
2013-12-6,21.2,18.2,12.2,14.2,11.6,7.2,81,75,67,30.58,30.26,16,10,16,0.00
2013-12-7,21.0,13.1,7.2,9.1,6.1,2.6,83,74,54,30.74,30.58,13,6,13,0.00
2013-12-8,26.0,21.0,10.6,24.3,17.4,6.7,94,86,77,30.65,30.00,20,8,20,0.09
2013-12-9,26.0,17.8,4.7,23.7,12.6,-2.9,91,80,65,30.30,30.00,26,13,26,0.00
2013-12-10,23.7,13.3,-4.2,13.6,5.7,-8.6,85,72,60,30.37,30.12,33,11,33,0.00
2013-12-11,19.7,13.4,-0.9,15.5,8.0,-6.9,90,79,68,30.64,30.33,20,8,20,0.07
2013-12-12,24.1,11.6,-2.3,14.6,4.6,-7.7,84,73,64,30.63,30.28,23,8,23,0.00
2013-12-13,33.3,23.0,10.2,27.9,18.7,6.7,95,84,70,30.29,30.12,12,5,12,0.11
2013-12-14,29.9,28.2,21.8,28.6,26.2,18.6,96,92,86,30.12,29.88,17,9,17,0.16
2013-12-15,21.5,14.3,11.6,18.8,9.6,6.9,90,81,77,30.18,30.00,24,10,24,0.00
2013-12-16,21.0,16.7,11.8,18.1,13.4,7.9,93,87,78,30.20,30.06,12,4,12,0.03
2013-12-17,31.9,24.4,17.6,27.1,20.6,15.4,94,85,71,30.15,30.02,22,11,22,0.00
2013-12-18,37.4,24.7,13.2,32.3,18.4,9.4,85,77,66,30.23,29.90,31,12,31,0.00
2013-12-19,40.9,37.2,32.0,39.8,34.3,29.8,96,89,82,29.96,29.80,18,6,18,0.00
2013-12-20,42.3,36.5,33.1,41.5,35.6,32.3,97,97,95,29.82,29.72,12,5,12,0.09
2013-12-21,34.1,32.5,30.3,33.3,31.6,29.1,97,97,95,29.86,29.54,20,8,20,0.31
2013-12-22,34.3,31.4,27.2,33.0,29.6,24.0,97,93,86,30.16,29.57,20,9,20,0.01
2013-12-23,27.1,14.8,0.9,24.2,10.5,-4.4,90,83,72,30.53,30.16,21,12,21,0.00
2013-12-24,18.7,8.9,0.0,13.3,3.7,-5.2,85,79,73,30.65,30.43,17,9,17,0.00
2013-12-25,28.2,24.4,18.8,26.4,20.6,13.3,94,85,75,30.43,30.16,21,12,21,0.01
2013-12-26,34.7,27.5,16.0,28.9,22.0,11.8,90,80,72,30.36,30.16,24,12,24,0.00
2013-12-27,44.5,35.6,23.8,34.7,30.1,21.3,93,81,66,30.34,30.14,24,10,24,0.00
2013-12-28,51.0,40.4,32.6,39.3,33.7,28.8,88,77,62,30.14,29.88,22,12,22,0.00
2013-12-29,37.4,29.4,16.1,31.8,25.6,11.5,93,86,79,30.20,29.80,21,12,21,0.00
2013-12-30,16.0,11.5,4.0,11.5,6.3,-0.5,88,80,71,30.38,30.20,16,6,16,0.02
2013-12-31,16.2,11.0,2.7,13.3,7.4,-1.4,88,85,79,30.45,30.23,14,5,14,0.00
2014-1-1,20.8,18.6,16.1,16.9,15.6,13.4,91,88,84,30.32,30.16,21,12,21,0.02
2014-1-2,19.7,14.1,0.8,17.7,11.5,-2.7,92,89,85,30.45,30.11,23,12,23,0.20